Wind_Speed
21 21 20 18 16 15 15 13 12 11 9 8 8 7 6 5 5 5 4 3 5 6 8 8 8 8 10 11 10 12 13 14 13 23 23 24 25 25 28 28 28 29 27
21 20 19 17 16 16 15 13 11 10 9 8 7 6 5 4 4 4 4 5 6 6 6 7 9 10 11 11 12 13 14 15 15 19 21 24 24 24 27 28 30 28 29
21 19 18 16 15 15 14 12 10 9 8 7 6 6 7 6 7 5 5 5 5 5 6 8 9 10 12 13 13 15 15 16 15 18 22 23 24 24 28 28 28 31 28
21 19 18 15 14 14 13 12 10 9 8 7 7 6 7 7 8 6 6 5 5 6 7 7 8 10 12 15 14 15 17 18 17 18 20 21 22 26 26 28 29 29 27
22 20 18 16 15 15 14 12 11 9 8 7 6 7 7 7 5 6 6 7 6 6 7 8 9 14 17 17 15 16 16 17 17 18 19 18 23 27 25 26 25 26 25
20 20 19 18 16 14 13 13 11 10 8 7 7 7 8 7 9 8 8 5 6 7 9 11 12 12 16 17 17 15 14 14 15 15 13 18 22 23 24 24 24 19 8
20 19 18 17 16 14 13 12 11 10 8 7 7 7 8 7 8 7 7 4 5 7 9 11 13 15 16 19 17 14 11 12 13 12 15 17 18 22 23 25 22 22 20
19 18 18 17 16 14 12 11 10 9 7 6 7 6 6 7 5 5 6 4 6 7 9 11 15 17 19 21 16 15 13 11 12 13 13 15 16 20 18 20 19 21 22
19 18 17 16 15 13 12 11 10 9 7 6 6 6 5 5 6 6 5 4 7 8 9 10 13 17 22 21 16 16 14 13 14 17 16 17 19 17 22 23 22 19 14
18 18 16 15 14 13 12 10 9 8 7 7 7 7 7 6 9 10 8 7 9 10 9 10 15 21 19 20 16 18 17 19 19 19 18 19 17 17 18 19 23 15 12
20 19 17 15 14 12 11 10 9 7 6 6 6 7 7 7 9 12 12 9 9 10 10 11 12 18 17 23 19 16 16 18 17 16 16 17 20 22 22 24 22 19 13
20 19 18 16 13 11 9 8 6 6 6 6 6 6 5 5 10 12 13 12 9 9 11 11 11 16 17 20 22 20 19 17 15 15 15 17 19 22 26 22 22 21 20
21 19 17 14 12 10 9 8 7 6 6 5 4 5 4 5 6 13 14 15 13 7 9 13 17 16 16 13 18 22 19 19 18 17 17 18 18 19 22 26 23 23 20
20 18 16 14 12 10 8 7 6 5 4 4 3 3 4 6 8 10 9 10 11 9 11 10 13 14 14 15 16 17 18 19 18 18 18 18 18 18 20 22 22 25 22
17 16 14 13 11 10 9 7 7 6 5 3 5 3 4 6 8 12 12 10 9 10 11 10 13 14 15 16 16 17 18 19 20 20 20 20 20 19 20 19 21 21 20
17 14 13 11 10 9 10 10 10 8 7 7 7 7 8 7 7 8 11 11 13 12 9 11 13 14 15 16 17 18 19 19 19 19 20 20 21 20 21 19 19 21 20
14 13 12 10 9 8 7 8 9 8 9 10 9 9 8 6 6 8 8 12 16 11 11 11 12 13 13 14 15 16 18 18 18 19 20 21 22 21 21 21 20 20 21
12 13 11 10 8 7 6 5 8 9 9 9 9 10 10 10 10 9 9 7 8 12 11 12 12 12 13 13 14 15 16 18 18 19 20 21 22 22 22 22 22 20 20
12 12 9 9 9 7 6 5 7 8 10 10 10 8 8 9 12 14 13 10 10 11 11 11 12 12 13 13 14 14 15 17 18 19 19 20 21 21 22 22 23 22 23
10 10 9 10 9 8 7 7 9 9 10 10 8 6 4 4 6 8 9 10 10 10 10 11 12 12 13 14 14 15 15 16 18 19 20 21 21 21 22 22 23 22 24
10 11 8 9 8 7 6 7 9 10 11 9 8 7 7 7 5 7 8 9 9 9 10 10 10 11 13 14 15 15 16 16 18 19 19 20 21 21 21 21 22 22 22
11 11 11 9 7 6 7 8 10 11 10 10 11 11 9 5 6 7 7 8 8 9 9 9 10 11 13 14 15 16 16 16 18 19 19 19 20 20 20 21 21 21 21
10 12 11 10 8 6 9 9 9 10 9 11 12 10 7 6 6 6 6 6 7 7 8 8 10 12 13 13 14 15 15 16 16 17 18 18 19 20 19 19 20 21 22
11 12 11 10 8 10 10 9 9 9 11 11 11 9 8 6 5 5 5 5 6 6 6 7 10 12 13 13 14 14 15 17 15 14 16 17 17 19 18 19 19 19 21
10 11 11 10 10 10 10 10 11 12 11 11 10 10 7 6 5 5 5 4 5 5 6 8 9 10 12 13 14 15 16 16 16 15 14 15 16 17 17 17 20 18 20
11 12 10 11 10 10 12 12 12 12 12 11 10 8 7 6 5 4 4 4 4 5 5 7 8 10 10 12 14 16 16 16 15 17 16 15 16 16 18 17 19 18 19
Wind_Direction
125 123 116 113 112 113 112 113 109 105 100 92 84 77 71 69 67 70 65 55 52 39 35 24 15 10 5 359 350 357 350 346 323 331 340 343 346 347 346 339 350 350 338
125 122 118 119 122 120 119 115 111 105 97 92 86 80 74 76 83 84 74 56 50 42 37 28 18 9 2 356 354 354 352 347 335 328 339 347 353 347 345 351 347 341 341
126 124 123 123 122 121 119 113 107 106 103 98 85 77 75 77 84 84 80 73 60 46 40 31 14 4 357 350 347 346 346 344 337 333 335 342 345 350 346 348 339 345 346
130 130 126 128 130 125 120 118 118 116 109 93 79 86 89 89 89 86 81 64 47 35 29 13 2 359 350 345 342 345 341 339 342 341 337 338 342 351 347 339 336 348 351
133 134 131 135 133 131 129 125 122 118 104 94 93 98 98 91 90 78 60 50 34 24 12 359 341 342 347 343 339 338 337 339 340 344 338 335 348 347 345 334 331 341 351
136 134 138 137 136 132 129 125 126 115 97 89 96 105 98 82 69 88 85 35 24 12 2 358 349 341 344 339 335 339 332 335 340 338 328 335 339 339 334 332 331 346 344
139 139 137 137 136 134 132 130 124 109 98 93 100 100 87 70 78 69 84 30 23 8 6 0 353 345 342 343 338 341 338 338 348 329 330 336 331 334 333 332 339 341 336
139 138 137 138 135 136 136 133 125 116 104 100 101 104 92 64 64 64 61 16 15 5 6 1 360 349 340 350 345 346 349 355 345 346 342 336 340 342 343 332 336 340 344
139 137 135 136 137 139 136 134 132 125 120 116 112 104 93 59 47 47 34 358 7 3 4 353 356 352 347 355 351 351 351 354 348 346 352 357 354 349 353 357 349 341 339
136 131 132 134 137 141 140 138 138 135 127 124 116 99 88 62 43 45 37 6 6 359 2 1 345 354 355 359 1 354 351 347 345 352 360 1 354 357 359 1 353 336 333
131 129 128 131 132 135 135 136 143 143 127 122 117 102 79 79 41 41 33 21 10 356 356 1 359 1 360 8 15 358 349 349 341 351 357 358 360 360 359 355 354 347 326
130 127 127 126 126 130 133 140 146 148 141 137 129 122 93 65 51 31 23 20 26 7 1 358 357 20 22 9 8 12 9 360 355 356 358 1 1 357 346 354 3 7 18
129 126 127 125 124 126 128 129 132 144 148 143 139 119 97 63 30 10 10 12 13 27 8 2 11 15 20 20 7 11 9 8 2 359 356 355 355 352 353 357 5 4 15
129 128 129 129 124 120 117 117 122 123 125 125 119 111 99 69 29 12 16 8 359 10 5 355 7 16 21 20 15 16 17 12 5 0 354 351 353 357 1 3 0 5 360
131 134 135 132 127 116 96 82 93 68 67 75 79 54 49 67 35 28 23 22 19 22 18 12 16 19 20 21 18 18 18 16 13 6 2 358 358 358 359 4 7 5 4
135 140 139 136 136 129 122 101 95 94 98 100 111 91 80 82 51 35 29 37 54 51 31 27 26 20 22 18 17 14 15 13 11 9 7 6 3 4 359 4 9 7 7
136 141 145 146 149 148 141 139 127 91 99 92 95 99 97 74 50 42 41 44 41 47 40 34 32 23 20 16 16 14 11 10 8 11 10 8 7 7 7 7 10 9 6
138 146 154 154 153 155 150 146 140 145 136 109 99 91 77 63 52 52 54 34 36 37 39 32 30 23 17 15 13 11 9 9 10 10 11 10 8 7 9 9 11 9 2
143 156 159 160 159 157 152 149 132 140 139 134 131 106 85 60 49 51 51 47 41 38 33 32 28 22 19 12 10 9 8 6 8 9 10 10 8 7 8 9 8 12 4
149 157 164 165 158 169 163 164 145 145 150 154 150 136 118 50 51 43 45 46 43 39 33 30 25 19 20 14 11 7 8 9 10 9 8 8 7 7 6 6 8 7 10
155 161 163 166 173 174 174 171 149 157 159 152 140 136 127 98 78 55 49 48 44 36 31 27 23 22 22 18 14 11 8 8 10 8 6 5 6 4 5 6 7 6 14
161 163 171 175 172 180 180 168 159 160 160 144 137 128 109 100 76 60 54 50 45 40 34 27 26 25 24 19 14 11 7 7 6 4 2 2 4 2 3 4 7 8 8
162 167 171 173 179 161 176 168 163 162 153 145 145 139 126 104 83 68 60 52 48 43 38 34 33 30 24 22 19 14 9 3 359 356 358 359 1 1 2 5 4 6 4
168 173 176 174 175 177 174 170 157 149 151 151 145 141 137 126 109 88 77 69 61 52 46 43 41 37 30 26 21 16 9 8 4 355 358 359 0 1 1 5 2 6 5
176 183 185 176 170 179 161 167 161 156 155 151 148 145 141 133 118 99 93 86 79 71 58 51 46 38 32 28 24 21 18 17 23 21 10 3 3 7 4 5 2 5 7
189 189 180 176 176 174 171 163 161 160 157 153 149 150 149 143 129 119 112 107 97 81 73 59 47 41 35 23 24 26 21 22 34 35 24 9 8 10 9 7 6 7 6
Height
787 792 795 800 805 809 812 817 819 821 823 824 824 824 826 826 826 826 827 827 826 824 822 821 820 817 814 812 809 803 798 797 793 785 779 774 769 763 756 749 742 735 727
790 795 799 804 809 813 817 820 822 823 825 825 826 827 827 828 828 828 829 828 826 826 824 823 821 818 816 813 807 804 800 797 794 787 779 772 768 762 756 749 742 735 728
791 798 803 808 812 816 818 821 823 825 827 828 829 828 828 829 829 830 830 830 829 828 825 822 821 819 816 812 808 804 800 797 792 787 779 774 768 762 756 750 742 735 728
794 802 806 812 816 818 819 822 825 828 829 829 830 830 830 831 832 832 832 832 830 828 825 824 823 820 817 813 809 804 800 795 791 786 781 776 768 763 758 750 740 735 728
798 804 809 815 818 821 823 825 827 829 830 830 832 833 833 833 833 833 833 832 831 829 828 826 824 821 816 813 809 804 801 796 791 786 783 777 769 764 759 752 745 737 731
802 806 812 816 820 823 825 826 830 831 831 832 834 834 835 834 831 831 832 834 833 831 829 826 824 822 817 812 808 804 800 797 792 788 784 779 773 768 761 755 748 741 732
806 809 813 817 820 824 827 828 831 831 833 835 836 836 835 834 834 834 834 835 833 832 830 827 824 822 818 811 806 801 797 794 791 789 784 780 774 769 763 756 751 746 738
807 810 813 818 821 825 828 830 832 833 835 837 837 838 838 837 837 836 835 836 834 832 830 828 825 822 817 809 804 800 796 793 792 789 785 780 776 770 766 760 753 747 740
808 812 815 820 823 827 830 832 834 835 838 839 839 840 841 840 838 836 835 836 834 832 830 827 825 822 815 810 806 801 796 793 791 786 782 778 775 771 766 759 753 747 741
810 813 817 821 825 829 832 834 836 838 839 840 841 841 841 842 839 836 835 836 833 831 829 828 823 820 815 811 806 802 797 794 791 786 781 779 776 771 766 761 755 751 744
811 815 819 824 827 831 834 836 838 840 840 841 842 842 842 842 839 837 837 837 834 832 830 827 824 819 818 814 808 805 801 794 791 786 783 780 777 773 768 763 757 751 743
813 817 822 826 829 833 836 838 839 840 840 841 842 842 843 843 840 838 838 837 834 833 832 829 825 819 816 815 812 807 802 797 793 789 785 782 779 775 770 765 760 754 750
815 819 824 828 831 834 836 838 839 840 839 839 839 840 842 843 843 841 839 838 836 834 833 831 826 821 817 814 812 809 805 801 797 793 789 785 781 777 772 767 762 757 753
817 821 826 830 833 835 836 838 839 840 840 840 841 842 843 843 845 844 841 839 838 835 833 831 827 823 819 817 815 811 808 806 803 798 793 788 783 777 773 770 765 761 755
818 823 827 831 833 836 838 840 842 843 842 843 844 845 843 845 847 845 843 840 838 836 832 831 828 825 822 819 818 815 811 808 805 802 797 791 785 780 775 772 768 764 761
819 824 827 830 833 836 840 843 844 845 846 846 847 847 847 847 847 846 845 842 838 835 834 833 831 830 827 825 822 819 816 813 809 804 800 795 790 784 779 773 771 768 764
819 824 828 831 834 837 839 840 845 849 849 850 850 849 849 849 848 846 845 843 841 838 837 836 834 834 832 830 826 824 820 817 813 808 803 799 794 788 782 777 773 771 768
821 825 829 832 835 837 838 840 841 846 849 852 852 852 851 851 848 847 846 844 844 842 841 840 839 838 836 833 831 828 825 821 816 811 807 802 798 792 786 781 777 774 770
823 827 829 832 834 836 838 840 842 847 849 852 854 853 853 852 851 850 849 848 847 846 845 844 843 842 839 837 835 831 828 825 821 815 811 806 801 797 791 786 782 777 773
824 827 829 832 835 837 838 839 842 845 848 851 852 853 855 853 853 854 852 851 850 850 849 848 847 846 843 841 838 835 831 827 823 819 815 810 806 801 796 791 786 780 778
824 828 830 832 834 837 838 838 840 845 847 848 851 852 854 855 856 855 854 854 854 854 853 852 851 849 846 843 841 838 835 832 827 823 819 815 810 805 801 796 791 787 783
823 826 830 832 835 837 838 839 842 845 846 847 853 853 854 857 857 857 858 858 857 857 857 856 854 852 849 846 845 842 839 835 831 828 823 818 814 810 805 800 795 791 786
823 826 829 832 835 837 839 840 842 843 846 849 852 854 856 858 859 860 860 860 860 860 859 859 857 854 852 850 848 845 842 838 835 831 826 822 817 813 808 804 800 796 792
823 826 828 831 834 835 837 840 842 844 847 850 852 854 857 858 860 861 861 862 862 862 862 861 859 857 855 853 851 848 843 838 836 833 830 826 821 817 813 808 804 800 796
823 826 828 830 833 835 836 838 842 844 848 851 853 854 857 858 861 862 862 863 864 864 863 862 861 859 858 856 852 847 843 840 836 832 831 828 825 821 816 812 809 804 800
824 826 828 832 833 834 836 838 841 844 848 851 854 856 857 859 861 863 864 864 865 865 864 863 862 861 859 856 851 848 845 842 839 836 832 831 828 824 820 816 813 808 805